Location: Bakov nad Jizerou
(50.4784°N, 14.9394°E)
Time: 12:10:41
(UTC+00:00)

SL-8 R/B - Pass Details

Date: 24 October 2021
Orbit: 656 x 667 km, 48.4° (Epoch: 29 November)

Event Time Altitude Azimuth Distance (km) Brightness Sun altitude
Rises 19:30:09 0° 278° (W) 2,990 8.0 -34.9°
Reaches altitude 10° 19:32:32 10° 274° (W) 2,079 6.9 -35.3°
Enters shadow 19:33:59 19° 268° (W) 1,556 6.1 -35.5°
